TimeCST,TemperatureF,Dew PointF,Humidity,Sea Level PressureIn,VisibilityMPH,Wind Direction,Wind SpeedMPH,Gust SpeedMPH,PrecipitationIn,Events,Conditions,WindDirDegrees,DateUTC
12:52 AM,43.0,32.0,65,30.25,10.0,SSE,4.6,-,N/A,,Clear,160,2013-12-18 06:52:00
1:52 AM,41.0,30.9,67,30.22,10.0,Calm,Calm,-,N/A,,Clear,0,2013-12-18 07:52:00
2:52 AM,41.0,30.9,67,30.21,10.0,Calm,Calm,-,N/A,,Clear,0,2013-12-18 08:52:00
3:52 AM,39.9,30.9,70,30.19,10.0,South,4.6,-,N/A,,Clear,180,2013-12-18 09:52:00
4:52 AM,37.0,30.9,79,30.19,10.0,South,6.9,-,N/A,,Scattered Clouds,180,2013-12-18 10:52:00
5:52 AM,36.0,30.0,79,30.17,10.0,South,3.5,-,N/A,,Scattered Clouds,170,2013-12-18 11:52:00
6:52 AM,36.0,30.0,79,30.17,10.0,Calm,Calm,-,N/A,,Scattered Clouds,0,2013-12-18 12:52:00
7:52 AM,35.1,30.9,85,30.18,10.0,South,4.6,-,N/A,,Scattered Clouds,170,2013-12-18 13:52:00
8:52 AM,42.1,36.0,79,30.18,9.0,South,5.8,-,N/A,,Partly Cloudy,180,2013-12-18 14:52:00
9:52 AM,48.9,35.1,59,30.18,10.0,SSW,12.7,-,N/A,,Partly Cloudy,200,2013-12-18 15:52:00
10:52 AM,55.9,36.0,47,30.17,10.0,SSW,13.8,-,N/A,,Partly Cloudy,210,2013-12-18 16:52:00
11:52 AM,62.1,37.9,41,30.12,10.0,SW,15.0,-,N/A,,Partly Cloudy,220,2013-12-18 17:52:00
12:52 PM,66.9,37.0,33,30.07,10.0,SSW,15.0,-,N/A,,Partly Cloudy,210,2013-12-18 18:52:00
1:52 PM,68.0,36.0,31,30.01,10.0,SSW,15.0,-,N/A,,Partly Cloudy,200,2013-12-18 19:52:00
2:52 PM,70.0,36.0,29,29.97,10.0,SSW,18.4,27.6,N/A,,Scattered Clouds,200,2013-12-18 20:52:00
3:52 PM,70.0,33.1,26,29.95,10.0,South,16.1,27.6,N/A,,Clear,190,2013-12-18 21:52:00
4:52 PM,66.0,34.0,30,29.94,10.0,South,13.8,-,N/A,,Clear,190,2013-12-18 22:52:00
5:52 PM,61.0,35.1,38,29.94,10.0,South,12.7,-,N/A,,Clear,180,2013-12-18 23:52:00
6:52 PM,57.9,37.0,46,29.93,10.0,SSE,12.7,-,N/A,,Clear,160,2013-12-19 00:52:00
7:52 PM,57.9,39.0,49,29.92,10.0,South,16.1,-,N/A,,Clear,170,2013-12-19 01:52:00
8:52 PM,57.0,42.1,57,29.91,10.0,South,17.3,-,N/A,,Scattered Clouds,170,2013-12-19 02:52:00
9:52 PM,57.9,45.0,62,29.90,10.0,South,18.4,-,N/A,,Clear,180,2013-12-19 03:52:00
10:52 PM,57.0,46.0,67,29.89,10.0,South,12.7,-,N/A,,Clear,180,2013-12-19 04:52:00
11:52 PM,57.0,46.0,67,29.88,10.0,South,17.3,-,N/A,,Clear,180,2013-12-19 05:52:00